Location: Newark
(7.1028°S, 35.3258°W)
Time: 09:24:48
(UTC+00:00)

Vanguard 3 - Pass Details

Date: 22 February 2020
Orbit: 508 x 3262 km, 33.3° (Epoch: 28 March)

Event Time Altitude Azimuth Distance (km) Brightness Sun altitude
Rises 07:23:36 0° 239° (WSW) 3,467 - -16.1°
Reaches altitude 10° 07:26:36 10° 242° (WSW) 2,223 - -15.3°
Exits shadow 07:27:51 17° 245° (WSW) 1,703 8.4 -15.0°
Maximum altitude 07:31:20 64° 323° (NW) 628 6.3 -14.2°
Drops below altitude 10° 07:34:58 10° 46° (NE) 1,716 9.3 -13.3°
Sets 07:37:01 0° 49° (NE) 2,592 10.3 -12.8°
